Location: Squirrel Cove
(50.1074°N, 124.9139°W)
Time: 14:27:20
(UTC-07:00)

PCSat - Pass Details

Date: 27 May 2022
Orbit: 784 x 795 km, 67.1° (Epoch: 26 June)

Event Time Altitude Azimuth Distance (km) Brightness Sun altitude
Rises 01:35:22 0° 324° (NW) 3,307 13.6 -18.5°
Reaches altitude 10° 01:37:53 10° 331° (NNW) 2,374 12.8 -18.4°
Maximum altitude 01:43:09 47° 45° (NE) 1,042 10.5 -18.3°
Drops below altitude 10° 01:48:23 10° 120° (ESE) 2,360 11.8 -18.2°
Enters shadow 01:49:58 - 124° (SE) 2,946 12.3 -18.2°
